User: anonymous   Login
Location: Peebles
(55.6412°N, 3.1714°W)
Time: 08:15:29
(UTC+01:00)
Language:

CUTE-I - Orbit

View from above orbital plane
View from above orbital plane
View from above satellite
View from above satellite

Ground track
Ground track

The orbit data is extracted from the following two-line orbital elements,

1 27844U 03031E   24103.91986983  .00000464  00000-0  22493-3 0  9992
2 27844  98.6798 111.8580 0009237 341.3488  18.7350 14.23156789 78500
Epoch (UTC): 12 April 2024 22:04:36
Eccentricity: 0.0009237
inclination: 98.6798°
perigee height: 808 km
apogee height: 821 km
right ascension of ascending node: 111.8580°
argument of perigee: 341.3488°
revolutions per day: 14.23156789
mean anomaly at epoch: 18.7350°
orbit number at epoch: 7850

The dashed part of the orbit path shows where the satellite is in the earth's shadow,  

DLR